Location: B?dimalle
(17.1788°N, 80.5377°E)
Time: 05:50:40
(UTC+00:00)

Vanguard 1 - Pass Details

Date: 19 February 2026
Orbit: 653 x 3818 km, 34.2° (Epoch: 14 March)

Event Time Altitude Azimuth Distance (km) Brightness Sun altitude
Rises 13:35:45 0° 300° (WNW) 6,035 15.0 -13.7°
Reaches altitude 10° 13:39:18 10° 305° (NW) 5,380 14.5 -14.5°
Maximum altitude 13:57:08 58° 23° (NNE) 3,978 12.9 -18.7°
Enters shadow 14:12:24 27° 89° (E) 5,552 13.2 -22.4°
